When you browse on this site, cookies collect data to enhance your experience and personalize the content and advertising you see.
Visit our Privacy Policy to learn more. By continuing to use the site, you agree to this use of cookies and data.
  • En España
  • Lista de países
  • Para 7 días
  • Temperatura del agua
  • El tiempo en el mapa
  • Informadores
  • user-avatar
    Iniciar sesión

    Tiempo cada hora Chester

    Hoy, 6 Diciembre, Viernes

    Tiempo Temperatura Precipitaciones Viento Presión Humedad
    00:00 +11°C° 0 mm 7 mps 752 mmHg 87%
    01:00 +11°C° 0 mm 6 mps 752 mmHg 87%
    02:00 +11°C° 0 mm 6 mps 751 mmHg 88%
    03:00 +12°C° 0 mm 5 mps 751 mmHg 88%
    04:00 +12°C° 0 mm 5 mps 750 mmHg 89%
    05:00 +12°C° 0 mm 5 mps 750 mmHg 90%
    06:00 +12°C° 0 mm 5 mps 750 mmHg 91%
    07:00 +12°C° 0.1 mm 5 mps 749 mmHg 90%
    08:00 +12°C° 0.1 mm 5 mps 749 mmHg 88%
    09:00 +12°C° 0.1 mm 5 mps 748 mmHg 87%
    10:00 +12°C° 0.1 mm 5 mps 748 mmHg 82%
    11:00 +11°C° 0.1 mm 6 mps 748 mmHg 78%
    12:00 +11°C° 0.1 mm 6 mps 748 mmHg 73%
    13:00 +10°C° 1 mm 6 mps 748 mmHg 76%
    14:00 +9°C° 1 mm 6 mps 748 mmHg 80%
    15:00 +8°C° 1 mm 5 mps 748 mmHg 83%
    16:00 +8°C° 0.1 mm 6 mps 749 mmHg 83%
    17:00 +8°C° 0.1 mm 6 mps 750 mmHg 84%
    18:00 +8°C° 0.1 mm 6 mps 751 mmHg 84%
    19:00 +8°C° 0 mm 6 mps 752 mmHg 84%
    20:00 +8°C° 0 mm 6 mps 752 mmHg 85%
    21:00 +7°C° 0 mm 5 mps 753 mmHg 86%
    22:00 +7°C° 0 mm 5 mps 753 mmHg 87%
    23:00 +7°C° 0 mm 5 mps 754 mmHg 87%

    Mañana, 7 Diciembre, Sábado

    Tiempo Temperatura Precipitaciones Viento Presión Humedad
    00:00 +7°C° 0 mm 5 mps 755 mmHg 87%
    01:00 +7°C° 0 mm 5 mps 755 mmHg 88%
    02:00 +7°C° 0 mm 4 mps 755 mmHg 88%
    03:00 +6°C° 0 mm 4 mps 755 mmHg 88%
    04:00 +7°C° 0.1 mm 4 mps 756 mmHg 86%
    05:00 +7°C° 0.1 mm 5 mps 756 mmHg 84%
    06:00 +8°C° 0.1 mm 5 mps 756 mmHg 82%
    07:00 +8°C° 0 mm 5 mps 757 mmHg 84%
    08:00 +7°C° 0 mm 4 mps 757 mmHg 85%
    09:00 +7°C° 0 mm 4 mps 757 mmHg 86%
    10:00 +8°C° 0 mm 4 mps 757 mmHg 84%
    11:00 +8°C° 0 mm 4 mps 757 mmHg 82%
    12:00 +10°C° 0 mm 4 mps 758 mmHg 80%
    13:00 +10°C° 0 mm 4 mps 757 mmHg 81%
    14:00 +9°C° 0 mm 5 mps 756 mmHg 82%
    15:00 +9°C° 0 mm 5 mps 756 mmHg 84%
    16:00 +9°C° 0 mm 5 mps 755 mmHg 85%
    17:00 +9°C° 0 mm 6 mps 755 mmHg 86%
    18:00 +9°C° 0 mm 6 mps 754 mmHg 87%
    19:00 +9°C° 0 mm 6 mps 753 mmHg 84%
    20:00 +9°C° 0 mm 7 mps 752 mmHg 82%
    21:00 +9°C° 0 mm 7 mps 751 mmHg 80%
    22:00 +10°C° 0.2 mm 8 mps 749 mmHg 81%
    23:00 +10°C° 0.2 mm 8 mps 748 mmHg 82%

    Pasado mañana, 8 Diciembre, Domingo

    Tiempo Temperatura Precipitaciones Viento Presión Humedad
    00:00 +10°C° 0.2 mm 9 mps 747 mmHg 83%
    01:00 +11°C° 0.4 mm 8 mps 746 mmHg 84%
    02:00 +11°C° 0.4 mm 8 mps 745 mmHg 85%
    03:00 +11°C° 0.4 mm 7 mps 744 mmHg 86%
    04:00 +10°C° 0.1 mm 7 mps 745 mmHg 82%
    05:00 +8°C° 0.1 mm 7 mps 745 mmHg 79%
    06:00 +7°C° 0.1 mm 6 mps 746 mmHg 75%
    07:00 +5°C° 0.1 mm 7 mps 746 mmHg 76%
    08:00 +5°C° 0.1 mm 7 mps 746 mmHg 78%
    09:00 +5°C° 0.1 mm 8 mps 746 mmHg 79%
    10:00 +5°C° 0.1 mm 8 mps 745 mmHg 75%
    11:00 +6°C° 0.1 mm 9 mps 745 mmHg 71%
    12:00 +6°C° 0.1 mm 9 mps 745 mmHg 66%
    13:00 +6°C° 0 mm 9 mps 745 mmHg 67%
    14:00 +5°C° 0 mm 9 mps 744 mmHg 68%
    15:00 +5°C° 0 mm 8 mps 743 mmHg 69%
    16:00 +5°C° 0.1 mm 9 mps 743 mmHg 71%
    17:00 +5°C° 0.1 mm 9 mps 742 mmHg 73%
    18:00 +5°C° 0.1 mm 9 mps 741 mmHg 76%
    19:00 +5°C° 0.5 mm 10 mps 740 mmHg 78%
    20:00 +5°C° 0.5 mm 10 mps 738 mmHg 81%
    21:00 +4°C° 0.5 mm 11 mps 737 mmHg 83%
    22:00 +4°C° 0.5 mm 11 mps 737 mmHg 79%
    23:00 +4°C° 0.5 mm 11 mps 737 mmHg 75%

    9 Diciembre, Lunes

    Tiempo Temperatura Precipitaciones Viento Presión Humedad
    00:00 +6°C° 0.5 mm 11 mps 737 mmHg 71%
    01:00 +6°C° 0.3 mm 11 mps 738 mmHg 74%
    02:00 +5°C° 0.3 mm 10 mps 739 mmHg 77%
    03:00 +5°C° 0.3 mm 10 mps 740 mmHg 80%
    04:00 +5°C° 0.3 mm 9 mps 742 mmHg 81%
    05:00 +5°C° 0.3 mm 8 mps 743 mmHg 81%
    06:00 +5°C° 0.3 mm 7 mps 745 mmHg 82%
    07:00 +5°C° 0 mm 7 mps 747 mmHg 79%
    08:00 +5°C° 0 mm 7 mps 749 mmHg 77%
    09:00 +5°C° 0 mm 7 mps 751 mmHg 74%
    10:00 +6°C° 0 mm 7 mps 753 mmHg 71%
    11:00 +6°C° 0 mm 8 mps 754 mmHg 68%
    12:00 +6°C° 0 mm 8 mps 756 mmHg 65%
    13:00 +6°C° 0 mm 8 mps 757 mmHg 65%
    14:00 +5°C° 0 mm 7 mps 758 mmHg 65%
    15:00 +5°C° 0 mm 6 mps 759 mmHg 65%
    16:00 +5°C° 0 mm 5 mps 760 mmHg 68%
    17:00 +5°C° 0 mm 4 mps 761 mmHg 70%
    18:00 +4°C° 0 mm 3 mps 762 mmHg 73%
    19:00 +5°C° 0 mm 2 mps 763 mmHg 76%
    20:00 +4°C° 0 mm 2 mps 763 mmHg 78%
    21:00 +5°C° 0 mm 1 mps 764 mmHg 80%
    22:00 +4°C° 0 mm 2 mps 763 mmHg 81%
    23:00 +4°C° 0 mm 2 mps 763 mmHg 82%

    10 Diciembre, Martes

    Tiempo Temperatura Precipitaciones Viento Presión Humedad
    00:00 +3°C° 0 mm 3 mps 763 mmHg 83%
    01:00 +3°C° 0 mm 3 mps 762 mmHg 83%
    02:00 +4°C° 0 mm 4 mps 762 mmHg 83%
    03:00 +4°C° 0 mm 4 mps 761 mmHg 83%
    04:00 +3°C° 0.2 mm 5 mps 759 mmHg 84%
    05:00 +4°C° 0.2 mm 6 mps 758 mmHg 85%
    06:00 +4°C° 0.2 mm 7 mps 756 mmHg 86%
    07:00 +5°C° 0.6 mm 8 mps 754 mmHg 86%
    08:00 +6°C° 0.6 mm 9 mps 753 mmHg 87%
    09:00 +6°C° 0.6 mm 10 mps 751 mmHg 87%
    10:00 +7°C° 0.5 mm 9 mps 749 mmHg 88%
    11:00 +8°C° 0.5 mm 9 mps 747 mmHg 89%
    12:00 +10°C° 0.5 mm 8 mps 746 mmHg 91%
    13:00 +10°C° 1.6 mm 8 mps 745 mmHg 91%
    14:00 +10°C° 1.6 mm 9 mps 745 mmHg 91%
    15:00 +10°C° 1.6 mm 9 mps 744 mmHg 91%
    16:00 +7°C° 1.3 mm 8 mps 745 mmHg 87%
    17:00 +6°C° 1.3 mm 7 mps 746 mmHg 83%
    18:00 +4°C° 1.3 mm 7 mps 748 mmHg 79%
    19:00 +4°C° 0 mm 6 mps 748 mmHg 78%
    20:00 +4°C° 0 mm 6 mps 749 mmHg 77%
    21:00 +3°C° 0 mm 6 mps 749 mmHg 76%
    22:00 +3°C° 0 mm 6 mps 750 mmHg 76%
    23:00 +3°C° 0 mm 5 mps 750 mmHg 77%

    11 Diciembre, Miércoles

    Tiempo Temperatura Precipitaciones Viento Presión Humedad
    00:00 +2°C° 0 mm 5 mps 750 mmHg 77%
    01:00 +2°C° 0 mm 5 mps 750 mmHg 77%
    02:00 +2°C° 0 mm 5 mps 749 mmHg 77%
    03:00 +2°C° 0 mm 5 mps 749 mmHg 77%
    04:00 +2°C° 0 mm 5 mps 748 mmHg 78%
    05:00 +1°C° 0 mm 5 mps 748 mmHg 79%
    06:00 +1°C° 0 mm 4 mps 747 mmHg 80%
    07:00 +1°C° 0.4 mm 4 mps 747 mmHg 82%
    08:00 +1°C° 0.4 mm 5 mps 746 mmHg 85%
    09:00 +2°C° 0.4 mm 5 mps 745 mmHg 87%
    10:00 +1°C° 0.8 mm 4 mps 744 mmHg 87%
    11:00 +2°C° 0.8 mm 3 mps 743 mmHg 87%
    12:00 +3°C° 0.8 mm 2 mps 743 mmHg 87%
    13:00 +3°C° 0.1 mm 3 mps 742 mmHg 86%
    14:00 +3°C° 0.1 mm 4 mps 742 mmHg 84%
    15:00 +3°C° 0.1 mm 4 mps 742 mmHg 82%
    16:00 +2°C° 0.1 mm 5 mps 742 mmHg 81%
    17:00 +1°C° 0.1 mm 5 mps 743 mmHg 80%
    18:00 +1°C° 0.1 mm 5 mps 743 mmHg 79%
    19:00 +1°C° 0.1 mm 5 mps 743 mmHg 79%
    20:00 +1°C° 0.1 mm 5 mps 743 mmHg 78%
    21:00 +1°C° 0.1 mm 6 mps 743 mmHg 78%
    22:00 +1°C° 0 mm 6 mps 743 mmHg 78%
    23:00 +1°C° 0 mm 6 mps 743 mmHg 79%
    Mostrar más